Lapse_Rate
6.5 6.2 5.9 6.0 6.1 6.3 5.8 5.3 4.7 4.8 5.1 5.0 4.9 4.8 4.2 3.8 3.6 3.3 3.7 4.5 4.7 5.6 6.1 6.2 6.1 6.1 6.0 6.1 6.4 6.2 6.4 6.6 6.4 6.4 6.3 6.6 6.3 6.2 6.2 6.7 6.9 6.5 6.6 5.8
6.7 6.5 6.1 6.0 6.0 6.1 5.5 4.7 4.6 4.8 4.8 4.7 4.6 4.5 4.1 3.6 3.4 3.2 3.6 4.4 4.6 5.3 6.0 6.2 6.2 5.8 5.7 5.9 5.9 6.2 6.0 6.5 6.7 7.0 6.6 6.8 6.6 6.5 7.2 6.8 6.7 5.7 6.5 5.8
6.9 6.6 6.1 6.2 6.1 5.8 5.2 4.4 4.6 4.2 4.3 4.7 4.6 4.1 3.8 3.6 3.1 3.2 3.8 4.2 4.3 5.0 5.7 6.2 6.2 5.9 5.5 5.6 5.9 6.0 6.2 6.1 6.3 6.5 6.1 6.4 6.5 7.1 7.3 6.9 6.9 6.6 5.9 5.6
7.3 6.7 6.0 6.1 5.9 5.2 4.3 4.5 4.9 5.0 5.0 5.0 4.3 3.8 3.9 3.5 3.2 3.4 3.8 4.0 4.1 4.6 5.1 5.7 5.9 5.8 5.6 5.5 5.6 6.2 6.2 6.1 6.4 6.3 6.2 6.4 6.4 6.3 7.0 7.0 6.5 6.4 5.9 5.9
6.4 5.6 5.5 5.6 4.8 4.1 4.0 4.7 5.0 5.0 5.2 4.6 4.1 3.9 4.0 3.5 3.5 3.9 4.1 4.0 4.1 4.3 4.7 5.4 5.6 5.8 5.7 5.6 5.7 5.9 6.1 6.2 6.2 6.1 6.4 6.2 6.3 6.5 6.2 6.3 6.2 6.2 6.2 6.3
5.4 4.3 4.4 4.2 3.8 3.7 4.3 4.9 4.8 4.8 4.8 4.5 4.4 4.2 4.0 3.7 3.6 4.0 4.0 4.0 4.0 4.1 4.4 4.7 5.0 5.3 5.8 5.8 5.9 6.1 6.2 6.1 6.1 6.2 6.4 6.5 6.6 6.2 6.1 6.2 6.1 6.0 6.0 6.0
3.2 3.1 2.9 3.2 3.8 4.4 5.1 4.8 4.6 5.0 4.7 4.7 4.6 4.1 3.6 3.7 3.7 4.0 4.1 3.9 3.9 4.2 4.3 4.4 4.6 4.6 5.1 5.6 6.1 6.3 6.3 6.4 6.3 6.3 6.2 6.8 5.7 6.1 6.2 6.3 6.2 6.1 6.1 6.2
2.5 2.8 3.3 3.7 4.2 4.8 4.8 4.2 4.9 4.7 4.6 4.7 4.4 4.1 3.8 3.9 3.9 4.1 4.0 4.0 4.1 4.2 4.2 4.1 4.2 4.3 4.5 4.7 5.3 5.9 6.3 6.5 6.2 6.5 6.1 5.7 5.7 5.7 6.1 6.1 6.0 6.0 6.0 6.3
3.7 4.5 4.7 4.8 5.1 4.7 4.2 4.6 4.4 4.1 4.6 4.7 4.4 4.1 4.0 4.1 4.1 4.0 4.0 4.1 4.2 4.1 4.1 4.2 4.2 4.2 4.2 4.4 4.6 4.9 5.2 5.8 6.1 6.4 6.4 6.6 6.0 5.9 5.7 5.9 5.8 5.9 6.0 5.9
4.3 4.9 5.2 4.5 4.5 4.3 4.1 4.3 3.9 4.4 4.6 4.7 4.5 4.2 4.4 4.2 4.2 4.3 4.3 4.3 4.2 4.1 4.2 4.3 4.2 4.1 4.4 4.2 4.4 4.5 4.5 4.7 4.9 5.2 5.7 5.9 6.2 6.1 6.0 6.2 6.0 5.8 5.9 6.0
4.0 4.6 4.5 4.6 4.6 4.2 4.3 4.0 4.1 4.6 4.7 4.7 4.5 4.2 4.3 4.4 4.3 4.3 4.4 4.2 4.3 4.3 4.2 4.3 4.6 4.4 4.5 4.6 4.5 4.5 4.5 4.6 4.5 4.8 4.9 5.4 5.5 6.0 6.1 5.9 6.3 6.0 6.0 6.0
4.2 4.5 4.7 4.4 4.5 4.5 4.3 4.1 4.4 4.7 4.7 4.7 4.4 4.3 4.2 4.2 4.2 4.3 4.5 4.5 4.6 4.6 4.5 4.6 4.6 4.6 4.5 4.5 4.4 4.6 4.6 4.7 4.8 4.8 4.9 5.0 5.0 5.1 5.3 5.7 6.0 6.0 6.1 6.1
4.3 4.4 4.8 4.8 4.8 4.6 4.2 4.2 4.7 4.8 4.7 4.6 4.6 4.6 4.4 4.3 4.2 4.4 4.4 4.6 4.5 4.6 4.7 4.8 4.8 4.7 4.6 4.5 4.6 4.7 4.8 4.7 4.8 4.8 5.0 5.1 5.1 5.0 5.0 5.0 5.2 5.4 5.7 5.9
4.3 4.4 4.7 4.7 4.7 4.7 4.2 4.5 4.7 4.7 4.6 4.6 4.5 4.4 4.3 4.4 4.4 4.4 4.5 4.5 4.5 4.6 4.6 4.7 4.8 4.6 4.6 4.8 4.8 4.9 4.9 4.8 4.8 4.9 5.0 5.0 5.1 5.2 5.1 5.1 5.1 5.2 5.2 5.3
4.3 4.5 4.6 4.6 4.6 4.5 4.4 4.7 4.9 4.8 4.5 4.5 4.5 4.3 4.3 4.4 4.4 4.5 4.6 4.5 4.6 4.7 4.7 4.7 4.8 4.8 4.7 4.9 4.9 5.4 5.4 5.4 5.2 5.2 5.0 5.0 5.1 5.4 5.4 5.4 5.3 5.3 5.3 5.4
4.3 4.3 4.4 4.2 4.2 4.4 4.3 4.6 4.8 4.7 4.7 4.6 4.4 4.4 4.4 4.4 4.4 4.6 4.7 4.6 4.6 4.8 4.9 4.9 4.9 5.0 5.0 5.1 5.4 5.6 5.6 5.5 5.3 5.2 5.1 5.0 5.0 5.3 5.5 5.5 5.6 5.5 5.5 5.5
4.3 4.0 3.6 4.0 4.1 4.2 4.2 4.4 4.7 4.6 4.5 4.6 4.6 4.6 4.4 4.3 4.5 4.7 4.8 4.8 4.8 4.7 4.8 5.0 5.1 5.1 5.1 5.5 5.9 6.0 5.8 5.8 5.5 5.2 5.2 5.1 5.1 5.2 5.3 5.3 5.6 5.7 5.8 5.9
4.3 3.8 3.4 3.6 4.0 4.1 4.1 4.1 4.5 4.5 4.4 4.5 4.7 4.8 4.7 4.6 4.8 4.9 4.9 4.8 4.8 4.9 4.9 5.0 5.1 5.1 5.3 6.0 6.4 6.3 6.0 5.9 5.8 5.6 5.4 5.3 5.4 5.4 5.4 5.5 5.7 5.9 6.0 6.0
4.2 3.5 3.2 3.2 3.6 3.7 4.1 4.1 4.3 4.4 4.3 4.5 4.7 4.8 4.9 4.8 4.9 4.9 4.8 4.8 4.8 4.9 5.1 5.1 5.2 5.4 5.9 6.3 6.4 6.4 6.1 5.9 5.7 5.7 5.5 5.4 5.3 5.5 5.6 5.6 5.7 6.0 6.2 6.2
3.8 3.4 3.0 3.1 3.4 3.7 3.8 4.2 4.3 4.2 4.2 4.4 4.8 5.0 5.0 5.1 5.0 4.9 4.8 5.0 5.0 5.0 5.3 5.3 5.4 6.6 6.4 6.2 6.2 6.3 6.1 5.9 5.8 5.6 5.5 5.4 5.2 5.3 5.4 5.5 5.8 5.9 6.2 6.4
3.4 3.4 2.8 3.2 3.4 3.5 3.7 4.2 4.2 4.1 4.2 4.4 4.8 4.8 5.0 5.1 4.9 4.9 4.9 5.0 5.2 5.1 5.2 5.2 5.6 6.9 7.0 6.8 6.5 6.2 6.1 5.9 5.8 5.6 5.4 5.3 5.2 5.2 5.3 5.5 5.8 6.0 6.2 6.4
3.7 3.8 3.7 3.3 3.3 3.6 3.9 3.9 4.1 4.2 4.4 4.7 5.0 5.1 5.2 5.3 4.8 4.8 4.9 5.1 5.3 5.0 5.0 5.2 5.9 7.0 6.9 6.8 6.6 6.5 6.2 5.9 5.8 5.6 5.4 5.2 5.2 5.1 5.2 5.3 5.7 6.0 6.2 6.3
3.4 3.2 3.1 3.5 3.7 3.7 3.5 3.6 3.9 4.2 4.9 5.5 5.5 5.4 5.2 5.1 4.9 4.9 5.1 5.1 5.1 5.0 5.2 5.7 6.6 6.8 6.7 6.7 6.6 6.4 6.2 6.0 5.8 5.5 5.3 5.1 4.9 4.9 5.1 5.2 5.6 5.9 6.2 6.3
3.3 3.3 3.4 3.7 3.7 3.5 3.6 4.0 4.4 5.3 5.2 5.2 5.2 4.9 4.6 5.0 4.9 5.0 5.1 5.1 5.2 5.3 5.3 6.3 6.6 6.6 6.5 6.6 6.5 6.4 6.1 5.8 5.6 5.4 5.2 5.1 4.8 4.8 5.1 5.2 5.5 5.8 6.1 6.2
3.3 3.5 3.7 3.7 4.0 4.6 4.5 4.5 4.6 5.2 5.1 5.1 4.9 4.7 4.6 4.8 4.9 5.1 5.2 5.3 5.3 5.6 6.2 6.3 6.4 6.6 6.6 6.4 6.3 6.2 6.0 5.7 5.5 5.2 4.9 4.9 4.8 4.9 5.1 5.3 5.4 5.6 5.9 6.1
3.8 3.8 3.7 4.5 4.8 5.1 4.7 4.6 4.6 4.7 4.8 4.8 4.3 4.2 4.4 4.5 4.9 5.2 5.4 5.4 6.0 6.2 6.4 6.3 6.4 6.4 6.4 6.3 6.2 6.0 5.7 5.5 5.2 4.8 4.6 4.7 4.8 4.9 4.9 5.3 5.5 5.5 5.8 6.0
3.8 3.9 4.4 4.8 5.4 5.2 4.7 4.6 4.6 4.6 4.6 4.9 4.5 4.6 4.8 4.8 4.9 5.1 5.5 6.0 6.1 6.2 6.1 6.1 6.3 6.2 6.0 6.0 5.9 5.6 5.3 5.0 4.8 4.6 4.5 4.6 4.7 4.8 4.9 5.1 5.3 5.3 5.6 5.8
Wind_Speed
17 14 12 10 5 11 17 3 3 4 2 3 1 2 3 3 5 2 2 1 3 4 4 3 2 2 3 3 5 5 3 3 3 3 4 5 4 7 4 3 4 5 6 5
15 14 10 10 5 7 2 3 3 3 2 3 3 2 3 2 4 4 4 2 1 2 3 2 2 4 5 5 3 4 3 3 2 3 1 1 5 13 5 2 2 5 3 5
12 12 9 12 9 8 2 3 4 2 2 1 3 5 5 5 1 3 2 2 2 3 3 2 3 1 2 4 4 4 3 4 6 5 4 4 6 17 10 1 7 13 10 12
11 12 9 13 13 5 4 2 3 4 6 6 5 3 7 7 6 2 3 3 2 3 3 3 2 1 3 2 6 4 3 4 5 6 3 3 9 13 16 8 5 9 10 14
9 12 8 15 9 11 2 4 4 2 2 8 14 6 7 11 4 6 5 2 7 3 2 0 4 2 1 2 4 2 3 2 2 6 9 10 14 16 12 13 13 14 14 13
5 10 12 14 9 4 2 1 1 2 6 9 11 6 8 11 8 1 2 6 7 3 2 2 4 4 2 2 4 5 3 1 1 2 4 5 7 12 10 9 10 6 10 6
7 9 15 15 16 15 2 2 3 2 4 7 9 8 6 12 4 4 3 4 3 3 4 5 3 3 3 3 6 5 3 1 1 2 2 3 3 4 2 12 10 9 8 6
7 12 18 21 14 19 2 2 2 2 4 5 4 10 8 9 7 5 6 4 3 5 2 2 3 2 2 4 5 5 4 2 2 1 4 3 3 3 2 4 7 8 6 5
13 23 25 25 24 21 3 3 1 2 7 5 5 6 10 6 5 4 3 3 1 1 1 1 1 1 1 2 1 1 1 2 2 1 2 2 2 1 3 3 3 6 5 7
18 14 28 37 28 17 5 2 1 3 4 2 1 3 9 4 3 4 4 4 2 2 1 1 1 2 0 1 1 1 1 2 3 3 3 2 1 1 3 1 4 4 5 6
13 39 36 32 25 18 4 3 3 2 3 4 4 3 3 3 2 4 6 5 1 2 3 2 2 1 2 2 1 1 1 1 1 1 1 2 1 3 2 4 4 4 4 4
5 21 26 24 21 15 7 4 3 6 6 4 4 6 6 3 2 3 2 1 3 3 2 2 2 2 2 1 2 1 2 1 1 2 2 2 1 2 3 2 4 2 2 2
8 26 26 17 13 16 9 4 1 3 4 4 2 4 5 6 4 3 2 1 2 2 1 2 1 1 2 3 3 3 3 2 1 3 3 2 1 3 3 2 4 3 3 2
3 28 23 17 17 13 9 3 0 3 4 4 3 3 3 7 5 1 1 3 4 3 0 1 1 1 2 1 1 3 1 7 5 1 2 3 4 2 3 4 4 3 2 2
17 28 25 20 17 14 12 3 3 2 1 4 3 1 5 7 4 7 6 6 3 1 2 1 1 2 2 0 1 4 6 5 5 4 9 2 8 9 6 5 4 3 2 1
15 28 26 23 18 13 2 2 2 4 1 4 4 1 3 5 6 9 8 4 3 2 1 2 1 1 2 3 3 3 9 6 2 3 9 4 10 7 3 4 3 2 1 2
31 26 23 19 11 5 3 1 1 2 1 3 4 2 2 2 2 2 2 3 2 2 2 1 1 2 2 2 4 3 10 8 5 10 12 6 7 4 5 3 2 1 1 1
29 25 22 23 23 13 3 3 3 3 4 3 4 2 1 1 1 1 2 1 1 3 1 1 2 1 2 5 9 4 9 9 8 10 1 3 10 8 5 3 2 3 3 2
30 27 20 5 4 2 0 1 5 5 2 3 2 5 3 2 1 1 1 1 1 1 1 1 2 3 6 8 9 13 15 13 13 9 7 8 8 8 7 5 4 3 3 2
19 6 3 2 1 3 3 2 2 3 3 2 3 2 3 3 2 1 2 1 1 2 1 2 3 5 11 7 6 12 16 11 17 14 8 8 8 9 9 7 5 4 4 2
3 1 2 0 3 1 2 1 0 0 1 1 3 2 5 3 2 3 1 2 1 2 2 2 2 4 3 2 10 9 14 13 15 3 7 9 8 11 10 8 6 5 4 3
3 5 4 1 2 2 2 2 0 3 3 3 5 4 2 3 2 2 2 2 1 3 3 2 3 4 1 1 8 9 14 13 11 6 9 8 8 9 8 7 6 5 4 4
2 3 2 1 2 2 6 7 3 3 5 6 5 4 3 3 1 3 2 3 3 3 2 4 5 1 2 4 8 9 11 12 10 9 8 8 8 6 6 5 4 4 4 3
2 4 5 5 4 5 5 4 3 2 4 8 5 4 2 2 3 2 3 1 2 3 3 6 2 3 4 7 8 11 13 13 11 10 10 9 9 7 5 5 4 4 4 3
4 4 6 7 2 1 1 2 3 2 7 6 4 3 2 2 3 2 4 3 5 6 5 3 2 2 5 9 9 10 11 9 8 7 7 7 7 6 6 6 6 5 4 5
2 3 2 1 3 3 3 3 3 4 7 3 2 3 3 3 3 4 8 6 6 3 3 2 2 4 6 9 9 9 8 8 7 6 6 6 7 6 6 5 5 6 6 6
4 3 1 2 1 2 4 5 5 5 5 3 3 5 5 4 2 4 5 5 3 2 2 2 3 5 10 8 8 8 8 8 7 7 7 7 6 4 5 6 5 5 5 6
Wind_Direction
282 262 264 247 231 317 134 140 115 146 194 149 342 165 176 167 158 169 214 175 110 187 157 132 138 139 269 282 290 326 12 316 349 356 338 266 318 360 2 326 74 42 77 55
270 251 253 218 162 63 105 101 95 49 284 179 185 145 145 184 155 188 188 158 176 208 137 127 155 206 253 278 289 332 14 14 296 176 275 298 2 358 0 15 35 30 53 86
261 239 233 210 168 126 86 137 117 133 213 349 159 148 181 155 141 151 135 120 147 156 142 52 162 261 280 304 293 318 276 53 41 63 44 327 359 18 37 258 83 100 83 92
243 207 223 198 180 190 125 191 145 175 181 196 184 192 171 164 175 151 191 132 203 139 148 159 175 147 289 254 338 354 19 67 64 58 65 75 50 33 44 54 75 82 102 73
231 196 220 182 197 214 178 159 139 91 108 168 186 197 194 184 169 177 185 196 160 144 168 190 164 171 247 336 346 32 4 60 67 73 88 73 65 40 59 57 71 87 90 67
205 192 225 194 197 149 130 100 72 192 139 162 175 194 173 186 158 88 5 157 140 155 123 110 87 77 65 29 0 12 13 145 203 125 301 308 29 2 28 75 47 42 70 47
186 198 203 200 205 236 182 160 144 163 143 174 191 155 159 168 174 138 114 139 133 108 119 125 126 104 110 88 38 19 4 20 301 91 251 82 65 7 32 78 57 62 74 56
207 224 218 223 215 161 98 139 146 136 121 157 131 153 132 113 93 91 95 43 31 139 137 126 122 111 170 56 26 26 24 313 58 37 55 118 122 30 29 15 54 28 62 62
272 250 232 232 197 164 102 68 47 112 128 179 127 130 160 136 126 113 76 57 49 304 69 162 157 129 85 156 157 62 20 357 310 78 92 94 73 63 11 310 94 34 40 40
319 157 148 137 140 142 113 90 351 103 106 57 143 135 167 130 112 101 133 150 138 327 156 158 148 124 24 188 143 59 20 18 47 56 78 101 176 341 333 284 88 57 48 43
36 124 124 117 119 124 94 82 20 106 92 68 14 10 133 122 171 151 143 146 163 141 203 227 134 181 126 202 105 178 278 136 120 131 118 162 136 138 268 81 88 72 73 57
54 155 144 112 100 102 122 99 48 56 76 92 65 76 52 26 31 115 161 41 156 153 136 195 149 158 194 186 178 181 205 324 32 291 37 55 29 48 85 87 120 110 110 104
61 147 162 128 112 69 83 104 135 70 101 96 68 8 355 27 5 314 182 187 140 170 0 133 110 173 200 183 216 167 198 174 200 195 156 144 70 63 74 77 96 76 65 41
124 163 155 133 114 90 92 88 61 69 101 103 62 340 22 334 344 298 9 119 103 97 184 94 128 178 235 212 38 253 83 158 164 164 180 157 208 177 135 108 89 70 61 50
134 151 144 130 113 105 88 85 34 1 44 116 114 295 11 8 35 70 83 99 101 91 127 119 126 109 177 112 258 236 190 170 185 202 175 178 167 164 155 148 119 69 45 88
183 141 129 123 136 130 80 76 44 3 69 109 125 1 347 2 31 55 54 49 60 67 64 91 115 48 265 206 239 234 187 186 199 140 147 90 131 135 143 149 135 120 96 37
139 135 132 117 104 69 58 83 53 19 46 94 108 96 17 338 5 39 31 37 58 38 103 146 157 178 236 237 240 187 182 170 147 140 123 118 175 179 163 145 138 144 142 183
124 119 114 98 98 113 51 6 15 38 89 67 108 80 209 14 86 104 355 49 68 39 89 160 205 165 230 248 223 173 164 153 158 169 34 141 135 140 156 149 157 173 215 231
118 120 116 78 39 53 152 142 59 55 66 112 104 149 178 149 97 80 120 328 164 74 227 213 201 191 229 225 183 178 174 174 169 152 138 140 152 161 172 170 167 190 221 266
123 61 63 100 302 273 245 16 23 26 10 55 98 130 134 170 174 133 136 339 145 226 130 137 226 255 258 236 201 185 177 164 150 145 169 176 179 186 190 199 197 204 204 179
49 72 78 177 259 155 33 105 83 13 248 130 122 149 137 198 154 149 215 166 202 235 146 233 252 264 242 218 184 176 174 166 177 173 172 178 182 183 181 183 182 180 179 188
149 112 106 152 51 52 139 203 18 220 225 152 146 161 138 143 183 125 169 148 171 235 136 222 255 249 250 175 173 163 169 164 164 154 149 152 157 169 176 180 184 193 178 168
110 62 79 153 150 206 197 191 214 218 171 174 165 141 133 132 162 90 141 166 196 128 210 239 239 225 213 178 159 152 156 154 149 146 151 150 151 157 168 180 190 190 201 193
115 152 165 208 191 234 191 190 157 118 136 146 132 120 135 126 139 146 146 125 162 217 238 235 228 211 178 166 162 151 161 164 162 163 164 164 169 178 183 191 193 199 219 202
163 179 220 208 181 107 96 97 117 139 148 135 116 98 123 127 127 175 121 165 237 222 233 234 215 169 163 164 163 157 161 163 161 163 166 170 177 188 199 207 206 204 205 214
176 227 201 159 163 162 178 176 148 176 151 113 85 123 138 179 156 162 210 178 224 233 220 220 156 170 181 172 167 166 160 159 156 161 169 183 191 197 209 215 207 213 212 219
198 228 214 197 232 173 171 166 173 160 159 171 145 153 182 106 188 230 193 215 232 215 219 207 211 189 181 175 163 159 158 161 166 171 189 198 204 201 222 235 227 222 226 233